CAPE
419 253 141 96 71 96 143 133 158 537 522 535 560 906 805 778 1005 937 663 677 812 798 888 629 619 633 1278 1395 1413 1309 1138 1405 1298
542 294 305 137 121 130 146 119 168 378 448 409 491 583 606 567 567 1201 803 540 492 482 553 923 893 673 1153 1017 1473 1216 1054 1257 1511
623 317 267 301 156 178 164 153 199 318 557 448 541 526 538 588 544 717 953 600 528 669 1145 1130 603 785 1188 1178 1228 1290 1107 1041 1190
381 339 338 443 325 194 158 152 196 393 662 619 612 554 520 661 669 628 750 764 1008 1127 1009 1207 761 991 1104 1183 1159 1143 1296 1431 1315
820 626 592 428 376 238 155 238 216 513 606 711 599 585 643 854 936 704 629 744 850 1174 1123 916 1084 1029 995 864 1039 1137 1226 1121 1295
311 314 335 395 398 213 207 426 422 658 696 742 627 567 591 705 924 889 655 686 772 693 640 712 781 903 1118 1153 1229 1162 1215 1084 1103
456 360 630 617 381 292 292 260 497 533 824 849 918 734 590 591 652 747 666 521 747 690 618 591 990 1129 1151 1127 1001 958 918 895 921
694 435 520 366 447 506 538 410 224 327 390 673 597 649 660 639 543 476 526 585 722 834 742 659 952 918 1055 1069 718 690 798 719 745
701 562 384 245 269 307 294 312 306 310 250 355 412 445 468 442 417 658 718 773 848 825 782 788 659 705 906 994 1055 1021 707 650 838
405 398 302 122 306 293 227 206 192 254 187 105 175 83 153 65 155 224 515 776 748 821 807 816 734 738 924 757 982 807 468 387 339
253 199 142 22 0 10 21 19 76 141 136 105 111 40 37 1 7 34 293 608 607 759 765 630 849 735 453 390 367 210 161 99 68
227 362 145 30 1 0 0 0 49 48 57 118 23 55 48 31 40 200 325 435 573 603 466 370 275 297 262 211 130 110 118 123 133
326 266 134 67 23 1 31 56 1 0 82 91 47 8 15 3 5 339 402 464 463 413 408 203 101 131 165 113 123 134 102 56 37
207 390 158 70 5 4 0 67 55 1 7 59 94 124 54 17 8 86 147 249 207 286 257 208 119 85 65 55 32 7 14 26 36
148 176 129 119 46 21 5 69 110 0 9 0 1 29 110 94 68 87 66 31 75 102 201 110 51 35 67 74 59 37 58 51 23
230 271 143 131 45 21 6 57 93 13 19 36 19 6 6 2 3 2 34 40 38 8 22 21 6 5 20 18 37 61 75 5 0
418 205 223 152 219 481 131 59 105 46 29 64 52 15 64 34 14 2 22 19 3 11 40 69 37 24 2 5 5 6 0 0 0
140 151 189 235 338 151 164 132 136 107 83 109 54 0 38 59 6 50 80 83 38 53 35 71 27 6 2 0 0 0 0 0 9
93 98 148 167 172 308 204 212 175 151 135 126 78 22 24 55 54 73 30 67 68 68 70 64 51 14 9 15 4 0 1 1 0
42 70 64 89 122 154 221 199 206 153 134 137 148 341 130 106 119 99 99 56 28 76 34 27 30 25 31 51 17 7 0 0 0
CIN
-37 -137 -105 -93 -71 -61 -61 -172 -160 -169 -159 -99 -126 -63 -64 -47 -46 -22 -10 -26 -20 -28 -35 -58 -41 -48 -38 -32 -33 -40 -37 -37 -24
-30 -106 -92 -53 -42 -49 -51 -153 -179 -189 -187 -170 -155 -139 -98 -99 -56 -34 -21 -70 -39 -33 -53 -18 -26 -35 -39 -15 -24 -15 -31 -33 -16
-68 -105 -74 -49 -63 -33 -22 -162 -193 -197 -197 -229 -203 -155 -113 -143 -145 -86 -39 -36 -86 -82 -21 -13 -19 -31 -34 -18 -25 -26 -17 -29 -12
-72 -38 -93 -23 -39 -59 -148 -122 -161 -160 -179 -186 -183 -164 -168 -119 -136 -109 -58 -60 -38 -21 -39 -15 -4 -42 -31 -27 -20 -19 -12 -6 -7
-22 -25 -34 -133 -51 -28 -266 -200 -49 -149 -160 -163 -182 -176 -154 -128 -88 -85 -80 -58 -23 -27 -13 -7 -32 -24 -24 -31 -34 -23 -16 -7 -39
-140 -74 -51 -63 -22 -125 -114 -109 -109 -157 -116 -106 -149 -136 -161 -126 -96 -52 -58 -81 -39 -36 -24 -56 -61 -52 -41 -43 -27 -23 -25 -23 -29
-200 -187 -128 -126 -102 -97 -48 -39 -130 -38 -51 -48 -97 -102 -118 -126 -103 -90 -60 -101 -53 -31 -37 -65 -57 -48 -35 -26 -29 -25 -29 -29 -34
-90 -174 -90 -117 -126 -95 -67 -62 -57 -90 -57 -58 -34 -55 -56 -39 -50 -67 -95 -94 -78 -43 -61 -63 -48 -41 -31 -19 -26 -37 -17 -18 -25
-143 -119 -84 -64 -231 -127 -186 -133 -140 -70 -43 -42 -21 -23 -45 -25 -56 -13 -51 -69 -46 -24 -36 -31 -36 -28 -26 -22 -7 -3 -10 -25 -13
-216 -84 -66 -115 -168 -148 -142 -151 -165 -140 -75 -25 -3 -11 -11 -137 -51 -41 -1 -32 -17 -9 -17 -12 -44 -28 -9 -8 -5 -10 -16 -5 -13
-175 -103 -82 -92 -0 -126 -140 -245 -89 -48 -75 -134 -35 -12 -17 -19 -22 -72 -55 -12 -24 -15 -14 -31 -14 -11 -10 -18 -24 -48 -30 -20 -27
-207 -90 -74 -222 -27 -0 -0 -0 -92 -58 -74 -70 -119 -81 -17 -13 -22 -20 -53 -11 -10 -7 -23 -12 -25 -18 -25 -26 -40 -40 -25 -6 -0
-145 -112 -87 -46 -266 -21 -179 -85 -4 -0 -26 -15 -27 -15 -25 -11 -12 -13 -10 -13 -14 -12 -14 -14 -35 -61 -28 -30 -31 -21 -11 -7 -5
-149 -89 -151 -284 -244 -161 -0 -132 -101 -0 -6 -29 -1 -7 -36 -33 -48 -2 -6 -14 -28 -23 -9 -5 -9 -10 -7 -11 -23 -35 -24 -25 -12
-124 -117 -169 -215 -270 -224 -253 -90 -62 -0 -4 -0 -0 -76 -13 -16 -3 -0 -0 -4 -0 -0 -0 -2 -0 -0 -3 -6 -5 -14 -30 -9 -6
-45 -77 -159 -189 -189 -199 -178 -86 -83 -38 -4 -18 -20 -0 -0 -4 -6 -0 -0 -0 -0 -0 -0 -0 -1 -1 -1 -18 -0 -0 -0 -12 -0
-60 -98 -105 -153 -94 -31 -72 -136 -47 -17 -7 -10 -21 -26 -0 -0 -3 -0 -3 -6 -1 -17 -6 -0 -1 -1 -25 -23 -22 -16 -0 -0 -0
-109 -139 -115 -69 -35 -83 -71 -73 -27 -26 -11 -0 -14 -7 -33 -2 -28 -2 -7 -3 -16 -18 -40 -20 -51 -108 -97 -0 -0 -0 -0 -0 -10
-84 -85 -66 -44 -51 -18 -17 -3 -1 -11 -2 -0 -0 -4 -38 -18 -0 -0 -5 -5 -8 -13 -20 -8 -11 -37 -48 -46 -77 -37 -30 -5 -0
-58 -48 -47 -48 -32 -11 -0 -2 -1 -0 -1 -0 -2 -0 -0 -0 -0 -0 -0 -1 -14 -7 -19 -13 -10 -16 -13 -3 -55 -54 -0 -0 -0
Wind_Speed
18 14 12 nan nan nan 7 13 15 7 5 5 5 5 2 4 3 5 6 9 11 10 11 9 10 8 9 9 9 11 14 14 12
9 18 12 9 10 8 19 13 14 14 5 5 9 5 6 6 6 8 8 6 9 12 12 11 9 11 10 8 9 11 14 13 11
6 13 18 18 18 14 10 12 12 13 9 6 11 11 9 9 9 9 9 10 9 9 9 11 12 12 12 10 11 11 13 12 12
18 20 23 24 18 22 18 13 17 15 20 13 12 15 15 14 12 11 14 14 12 12 14 14 14 14 12 12 12 12 13 13 15
27 23 16 18 21 21 29 25 21 21 20 17 16 16 19 19 19 17 15 16 15 17 15 16 17 16 15 14 14 13 16 17 18
29 28 23 19 16 13 21 24 30 25 24 15 29 23 22 24 22 20 16 18 19 19 18 18 18 20 19 18 18 18 18 18 19
31 33 29 26 22 20 22 21 29 30 30 27 35 32 26 25 24 19 19 20 20 21 22 21 19 21 20 19 20 19 19 20 20
36 31 24 27 32 31 27 22 26 25 38 43 44 45 42 37 33 30 28 25 21 21 24 22 23 24 22 21 24 25 22 22 23
50 39 39 37 33 35 32 25 21 33 34 41 38 46 43 48 46 37 28 26 23 25 27 27 25 25 24 28 30 28 29 31 32
50 38 33 39 27 31 31 21 25 31 40 37 36 nan 41 nan 36 39 30 32 28 27 29 29 29 30 32 34 33 30 30 32 32
43 44 38 nan nan nan nan nan nan 25 29 35 37 nan nan nan nan nan 31 37 33 32 36 35 34 33 36 38 35 33 33 nan nan
38 42 47 nan nan nan nan nan nan nan nan 32 nan nan nan nan nan 38 34 37 40 38 42 45 41 38 41 42 38 35 35 37 41
32 34 38 nan nan nan nan nan nan nan nan nan nan nan nan nan nan 49 41 44 41 38 46 50 46 40 40 42 41 48 49 nan nan
31 27 22 nan nan nan nan nan nan nan nan nan nan 33 nan nan nan nan 50 42 42 50 50 50 51 nan nan nan nan nan nan nan nan
24 37 31 27 nan nan nan nan 28 nan nan nan nan nan 34 nan nan nan nan nan nan 34 49 55 nan nan nan nan nan nan nan nan nan
25 34 22 16 nan nan nan nan nan nan nan nan nan nan nan nan nan nan nan nan nan nan nan nan nan nan nan nan nan nan nan nan nan
17 15 19 19 16 13 14 nan 21 nan nan nan nan nan nan nan nan nan nan nan nan nan nan nan nan nan nan nan nan nan nan nan nan
10 15 15 15 14 18 17 12 11 20 nan 21 nan nan nan nan nan nan nan nan nan nan nan nan nan nan nan nan nan nan nan nan nan
nan nan 11 14 19 21 16 18 15 14 16 14 nan nan nan nan nan nan nan nan nan nan nan nan nan nan nan nan nan nan nan nan nan
nan nan nan nan 14 16 16 13 11 12 7 5 9 14 11 4 5 nan nan nan nan nan nan nan nan nan nan nan nan nan nan nan nan
Wind_Direction
323 326 358 nan nan nan 301 314 297 297 289 273 233 233 234 195 216 194 173 185 192 198 208 205 217 208 214 235 245 249 254 246 245
345 304 303 353 336 233 259 291 293 290 291 265 265 230 225 225 209 225 191 189 207 206 210 208 230 245 237 232 246 254 257 255 260
317 307 298 305 293 246 285 274 243 282 269 276 257 255 220 225 233 224 223 219 216 223 217 222 238 250 258 253 252 258 265 269 267
264 292 295 305 292 277 259 255 232 253 263 255 243 249 237 222 227 231 239 244 230 234 236 249 255 257 258 263 266 264 266 274 280
275 270 281 276 272 283 257 248 241 241 243 278 259 250 247 236 225 225 229 247 245 253 249 248 259 262 262 262 267 271 276 283 284
273 258 261 269 289 270 260 248 240 235 267 252 252 244 244 246 236 229 222 232 240 239 243 242 253 260 265 269 265 267 269 272 277
263 272 267 265 265 266 268 263 238 246 224 228 244 248 240 242 243 233 229 230 242 242 242 245 242 245 248 253 258 260 263 270 276
259 264 270 273 269 267 271 274 268 271 254 257 233 234 230 224 222 226 225 224 233 244 248 245 245 248 249 257 261 262 271 276 285
269 268 264 265 268 263 260 266 281 278 275 268 261 230 234 232 226 222 231 226 230 242 247 248 245 247 254 259 256 263 274 274 275
271 264 267 267 261 242 246 251 270 271 277 272 273 nan 241 nan 223 227 229 240 231 243 252 248 254 252 253 255 257 254 258 268 272
261 261 259 nan nan nan nan nan nan 261 273 265 265 nan nan nan nan nan 224 244 242 237 244 249 249 256 259 259 255 248 251 nan nan
276 263 261 nan nan nan nan nan nan nan nan 263 nan nan nan nan nan 227 230 239 241 244 250 252 253 257 258 260 253 248 259 265 267
267 256 260 nan nan nan nan nan nan nan nan nan nan nan nan nan nan 228 226 235 238 238 245 253 255 250 251 255 253 243 250 nan nan
253 242 235 nan nan nan nan nan nan nan nan nan nan 266 nan nan nan nan 226 233 239 239 238 243 247 nan nan nan nan nan nan nan nan
243 242 239 261 nan nan nan nan 259 nan nan nan nan nan 240 nan nan nan nan nan nan 226 242 246 nan nan nan nan nan nan nan nan nan
245 238 246 227 nan nan nan nan nan nan nan nan nan nan nan nan nan nan nan nan nan nan nan nan nan nan nan nan nan nan nan nan nan
218 210 212 220 230 254 278 nan 253 nan nan nan nan nan nan nan nan nan nan nan nan nan nan nan nan nan nan nan nan nan nan nan nan
221 228 223 224 230 247 246 243 270 278 nan 300 nan nan nan nan nan nan nan nan nan nan nan nan nan nan nan nan nan nan nan nan nan
nan nan 228 228 240 243 245 248 258 257 274 285 nan nan nan nan nan nan nan nan nan nan nan nan nan nan nan nan nan nan nan nan nan
nan nan nan nan 257 253 263 264 250 257 221 285 281 256 274 170 107 nan nan nan nan nan nan nan nan nan nan nan nan nan nan nan nan